Location: Unspecified
(50.7693°N, 0.0000°E)
Time: 03:08:06
(UTC+00:00)

Vanguard 1 Rocket - Pass Details

Date: 24 June 2019
Orbit: 651 x 4225 km, 34.3° (Epoch: 16 July)

Event Time Altitude Azimuth Distance (km) Brightness Sun altitude
Rises 15:01:57 0° 211° (SSW) 8,273 12.8 46.0°
Reaches altitude 10° 15:09:45 10° 200° (SSW) 6,871 12.4 44.8°
Maximum altitude 15:24:26 24° 157° (SSE) 4,559 11.1 42.6°
Drops below altitude 10° 15:34:19 10° 109° (ESE) 4,546 10.7 41.1°
Sets 15:38:01 0° 96° (E) 5,070 10.8 40.5°
